[[{"header":{"parameterUnit":"m.s-1","parameterCategory":1,"la1":30.2992,"la2":30.254,"lo1":-89.0895,"lo2":-89.0443,"dy":0.0025,"dx":0.0025,"nx":19,"ny":19,"refTime":"2026-05-16T03:00:00:Z","depth":0,"parameterNumber":2,"parameterNumberName":"U-component_of_WINDS"},"data":[0,0,0,-1.1928,-1.193,-1.2033,-1.2034,-1.2166,-1.2167,0,0,0,0,0,0,0,0,0,0,0,-1.1895,-1.1896,-1.1928,-1.193,-1.2033,-1.2034,-1.2165,-1.2167,0,0,0,0,0,0,0,0,0,0,0,-1.1895,-1.1896,-1.1897,-1.193,-1.2033,-1.2034,-1.2165,-1.2088,0,0,0,0,0,0,0,0,0,0,-1.1988,-1.1955,-1.1896,-1.1897,-1.1931,-1.2033,-1.2034,-1.2084,-1.2093,-1.2118,0,-1.2139,0,-1.2155,-1.2175,-1.2176,0,0,0,-1.1932,-1.1948,-1.1978,-1.1897,-1.1932,-1.2033,-1.1987,-1.2089,-1.2098,-1.213,-1.2141,-1.2146,-1.2157,-1.2176,-1.2177,-1.2316,-1.2317,0,0,-1.1926,-1.1913,-1.1971,-1.1984,-1.1966,-1.1984,-1.199,-1.2095,-1.2107,-1.2141,-1.2149,-1.2159,-1.2177,-1.2178,-1.2316,-1.2316,0,0,0,-1.1909,-1.1909,-1.1936,-1.1978,-1.1997,-1.1987,-1.1994,-1.2102,-1.2112,-1.215,-1.2161,-1.2178,-1.2179,-1.2315,-1.2316,-1.2331,0,0,0,-1.1905,-1.1899,-1.1933,-1.1927,-1.1995,-1.205,-1.1999,-1.2105,-1.2117,-1.216,-1.2178,-1.2181,-1.2314,-1.2315,-1.233,-1.2341,0,0,0,-1.1889,-1.1897,-1.1911,-1.1926,-1.1969,-1.2049,-1.2065,-1.2108,-1.2123,-1.2176,-1.2181,-1.2314,-1.2315,-1.2328,-1.2339,-1.2375,0,0,0,-1.1869,-1.1923,-1.1911,-1.1976,-1.1968,-1.2057,-1.2064,-1.2131,-1.2178,-1.2179,-1.2314,-1.2316,-1.2328,-1.2337,-1.2373,-1.2404,-1.2415,0,0,-1.1931,-1.193,-1.197,-1.1962,-1.2049,-1.2042,-1.2133,-1.2189,-1.2206,-1.2279,-1.2283,-1.233,-1.2339,-1.2375,-1.248,-1.2489,0,0,0,-1.1985,-1.2014,-1.204,-1.2083,-1.2126,-1.2165,-1.2208,-1.223,-1.2292,-1.224,-1.2353,-1.2358,-1.238,-1.2396,-1.2403,-1.2424,-1.2322,-1.2322,-1.2322,-1.2055,-1.2074,-1.2141,-1.2173,-1.2215,-1.2259,-1.2296,-1.2332,-1.2339,-1.2365,-1.2387,-1.2449,-1.2466,-1.2472,-1.2493,-1.2404,-1.2404,-1.2404,-1.2404,-1.2149,-1.2193,-1.22,-1.2268,-1.2288,-1.2346,-1.2392,-1.2395,-1.2453,-1.2434,-1.2454,-1.2432,-1.2481,-1.2501,-1.2406,-1.2405,-1.2405,-1.2405,-1.2405,-1.2198,-1.2222,-1.2246,-1.2312,-1.2361,-1.2391,-1.2447,-1.2463,-1.2479,-1.2499,-1.2525,-1.2525,-1.2528,-1.251,-1.251,-1.251,-1.251,-1.2511,-1.2511,-1.224,-1.2266,-1.231,-1.2361,-1.2392,-1.2435,-1.248,-1.2512,-1.2551,-1.2559,-1.2559,-1.2564,-1.2482,-1.2461,-1.2514,-1.2514,-1.2513,-1.2513,-1.2513,-1.2331,-1.2313,-1.238,-1.2411,-1.2473,-1.2522,-1.2541,-1.2604,-1.2633,-1.266,-1.2661,-1.2597,-1.2598,-1.2593,-1.2576,-1.2656,-1.2656,-1.2656,-1.2656,-1.2373,-1.2375,-1.2449,-1.2497,-1.2546,-1.2571,-1.265,-1.2686,-1.2722,-1.2741,-1.2732,-1.2711,-1.2704,-1.271,-1.2701,-1.2686,-1.2792,-1.2792,-1.2792,-1.2431,-1.2438,-1.2501,-1.2534,-1.2583,-1.2627,-1.2702,-1.2759,-1.2795,-1.2798,-1.2757,-1.2751,-1.2717,-1.2705,-1.2708,-1.2695,-1.2668,0,0]},{"header":{"parameterUnit":"m.s-1","parameterCategory":1,"la1":30.2992,"la2":30.254,"lo1":-89.0895,"lo2":-89.0443,"dy":0.0025,"dx":0.0025,"nx":19,"ny":19,"refTime":"2026-05-16T03:00:00:Z","depth":0,"parameterNumber":3,"parameterNumberName":"V-component_of_WINDS"},"data":[0,0,0,3.4972,3.4974,3.5065,3.5066,3.5184,3.5185,0,0,0,0,0,0,0,0,0,0,0,3.4948,3.4949,3.4972,3.4974,3.5065,3.5066,3.5184,3.5185,0,0,0,0,0,0,0,0,0,0,0,3.4948,3.4949,3.495,3.4974,3.5065,3.5066,3.5183,3.5113,0,0,0,0,0,0,0,0,0,0,3.5024,3.5007,3.4949,3.495,3.4975,3.5065,3.5066,3.511,3.5118,3.5144,0,3.517,0,3.518,3.5193,3.5194,0,0,0,3.4971,3.5,3.5022,3.495,3.4976,3.5065,3.5023,3.5114,3.5123,3.5154,3.5172,3.5176,3.5182,3.5194,3.5194,3.5361,3.5362,0,0,3.4966,3.4966,3.5016,3.5028,3.5017,3.502,3.5026,3.5119,3.5138,3.5173,3.5179,3.5184,3.5195,3.5196,3.536,3.5361,0,0,0,3.4953,3.4963,3.4982,3.5023,3.504,3.5023,3.503,3.5134,3.514,3.518,3.5185,3.5195,3.5197,3.5359,3.536,3.5406,0,0,0,3.495,3.4956,3.498,3.4981,3.5038,3.5088,3.5042,3.5134,3.5144,3.5184,3.5195,3.5198,3.5358,3.536,3.5402,3.5426,0,0,0,3.4941,3.4955,3.4969,3.4981,3.5021,3.5087,3.5099,3.5136,3.5147,3.5194,3.5198,3.5357,3.5359,3.5399,3.5421,3.5468,0,0,0,3.4931,3.5009,3.497,3.5059,3.502,3.5116,3.5098,3.5169,3.5214,3.5196,3.5358,3.536,3.5398,3.5418,3.5465,3.5507,3.5525,0,0,3.5029,3.5021,3.5073,3.5041,3.5144,3.5102,3.521,3.5251,3.5254,3.5324,3.5328,3.5404,3.5421,3.5468,3.563,3.5644,0,0,0,3.5104,3.5141,3.5168,3.5212,3.5246,3.5275,3.53,3.5314,3.5374,3.5292,3.5435,3.5445,3.5472,3.5492,3.5504,3.5526,3.537,3.537,3.537,3.5242,3.5243,3.5328,3.5339,3.5382,3.5406,3.5439,3.5462,3.5451,3.5485,3.5505,3.5603,3.5626,3.5635,3.5658,3.5529,3.5529,3.5529,3.5529,3.5384,3.5435,3.5418,3.5494,3.5493,3.5557,3.5582,3.5571,3.5628,3.5589,3.5613,3.5567,3.5651,3.5671,3.5533,3.5532,3.5532,3.5531,3.5531,3.5472,3.5496,3.5514,3.5576,3.5624,3.5632,3.5688,3.5686,3.5684,3.5708,3.5727,3.5726,3.5723,3.5718,3.5718,3.5718,3.5719,3.5719,3.5719,3.5556,3.5574,3.5622,3.5664,3.569,3.5725,3.5749,3.5775,3.5802,3.5796,3.5796,3.5779,3.5661,3.5629,3.5724,3.5723,3.5723,3.5722,3.5722,3.5694,3.5663,3.5736,3.5763,3.5811,3.5856,3.5854,3.5905,3.5926,3.5953,3.5931,3.5845,3.5835,3.5826,3.5799,3.5933,3.5933,3.5933,3.5933,3.5767,3.5763,3.5836,3.5879,3.592,3.5925,3.6005,3.6024,3.6038,3.605,3.6031,3.5997,3.5987,3.5983,3.597,3.5945,3.6112,3.6113,3.6113,3.5851,3.585,3.5919,3.5934,3.5971,3.6001,3.6076,3.6123,3.6132,3.612,3.6058,3.6051,3.5996,3.5979,3.5963,3.5942,3.5897,0,0]}]]